TimeCEST,TemperatureF,Dew PointF,Humidity,Sea Level PressureIn,VisibilityMPH,Wind Direction,Wind SpeedMPH,Gust SpeedMPH,PrecipitationIn,Events,Conditions,WindDirDegrees,DateUTC
12:45 AM,51.8,46.4,82,30.21,-9999.0,SE,2.3,-,N/A,,Clear,130,2012-10-17 22:45:00
1:45 AM,50.0,46.4,87,30.21,-9999.0,Calm,Calm,-,N/A,,Clear,0,2012-10-17 23:45:00
2:00 AM,51,46,75,30.23,37,Calm,Calm,,,,Partly Cloudy,,2012-10-18 00:00:00
2:45 AM,48.2,44.6,87,30.21,-9999.0,ESE,5.8,-,N/A,,Clear,110,2012-10-18 00:45:00
3:45 AM,48.2,44.6,87,30.21,-9999.0,East,5.8,-,N/A,,Clear,100,2012-10-18 01:45:00
4:45 AM,46.4,44.6,93,30.21,-9999.0,East,5.8,-,N/A,,Clear,80,2012-10-18 02:45:00
5:45 AM,46.4,42.8,87,30.21,-9999.0,ENE,5.8,-,N/A,,Clear,70,2012-10-18 03:45:00
6:15 AM,46.4,42.8,87,30.21,-9999.0,ENE,4.6,-,N/A,,Clear,70,2012-10-18 04:15:00
6:45 AM,46.4,44.6,93,30.21,-9999.0,ENE,6.9,-,N/A,,Clear,60,2012-10-18 04:45:00
7:00 AM,-9999,-9999,N/A,-9999,-9999.0,East,6.9,-,N/A,,Clear,80,2012-10-18 05:00:00
7:15 AM,46.4,44.6,93,30.21,-9999.0,East,6.9,-,N/A,,Clear,80,2012-10-18 05:15:00
7:45 AM,48.2,44.6,87,30.21,-9999.0,East,6.9,-,N/A,,Clear,90,2012-10-18 05:45:00
8:00 AM,48,45,87,30.22,37,East,6.7,,,,Partly Cloudy,90,2012-10-18 06:00:00
8:15 AM,48.2,46.4,93,30.21,-9999.0,East,6.9,-,N/A,,Clear,90,2012-10-18 06:15:00
8:45 AM,50.0,48.2,94,30.21,-9999.0,East,6.9,-,N/A,,Clear,90,2012-10-18 06:45:00
9:15 AM,53.6,48.2,82,30.21,-9999.0,East,8.1,-,N/A,,Clear,90,2012-10-18 07:15:00
9:45 AM,55.4,50.0,82,30.24,-9999.0,East,6.9,-,N/A,,Clear,90,2012-10-18 07:45:00
10:00 AM,-9999,-9999,N/A,-9999,-9999.0,SE,8.1,-,N/A,,Clear,130,2012-10-18 08:00:00
10:15 AM,57.2,50.0,77,30.24,-9999.0,East,8.1,-,N/A,,Clear,100,2012-10-18 08:15:00
10:45 AM,59.0,51.8,77,30.24,-9999.0,ESE,6.9,-,N/A,,Clear,120,2012-10-18 08:45:00
11:15 AM,60.8,51.8,72,30.24,-9999.0,ESE,6.9,-,N/A,,Clear,120,2012-10-18 09:15:00
11:45 AM,62.6,53.6,72,30.24,-9999.0,ESE,6.9,-,N/A,,Clear,120,2012-10-18 09:45:00
12:15 PM,64.4,51.8,64,30.21,-9999.0,SE,8.1,-,N/A,,Clear,130,2012-10-18 10:15:00
12:45 PM,64.4,53.6,68,30.21,-9999.0,ESE,8.1,-,N/A,,Clear,110,2012-10-18 10:45:00
1:00 PM,-9999,-9999,N/A,-9999,-9999.0,ESE,8.1,-,N/A,,Clear,120,2012-10-18 11:00:00
1:15 PM,66.2,51.8,60,30.21,-9999.0,SE,9.2,-,N/A,,Clear,130,2012-10-18 11:15:00
1:45 PM,68.0,51.8,56,30.18,-9999.0,SE,9.2,-,N/A,,Clear,130,2012-10-18 11:45:00
2:00 PM,67,51,46,30.18,19,SE,8.9,,,,Partly Cloudy,130,2012-10-18 12:00:00
2:15 PM,68.0,53.6,60,30.18,-9999.0,SE,9.2,-,N/A,,Clear,130,2012-10-18 12:15:00
2:45 PM,68.0,50.0,52,30.18,-9999.0,SE,10.4,-,N/A,,Clear,140,2012-10-18 12:45:00
3:15 PM,68.0,51.8,56,30.18,-9999.0,SE,9.2,-,N/A,,Clear,140,2012-10-18 13:15:00
3:45 PM,68.0,51.8,56,30.15,-9999.0,SSE,10.4,-,N/A,,Clear,150,2012-10-18 13:45:00
4:00 PM,-9999,-9999,N/A,-9999,-9999.0,SE,8.1,-,N/A,,Clear,130,2012-10-18 14:00:00
4:15 PM,68.0,53.6,60,30.15,-9999.0,SE,9.2,-,N/A,,Clear,140,2012-10-18 14:15:00
4:45 PM,64.4,53.6,68,30.15,-9999.0,SE,6.9,-,N/A,,Clear,140,2012-10-18 14:45:00
5:15 PM,64.4,53.6,68,30.15,-9999.0,SE,6.9,-,N/A,,Clear,140,2012-10-18 15:15:00
5:45 PM,60.8,51.8,72,30.15,-9999.0,SE,5.8,-,N/A,,Clear,140,2012-10-18 15:45:00
6:15 PM,62.6,51.8,68,30.15,-9999.0,SE,3.5,-,N/A,,Clear,140,2012-10-18 16:15:00
6:45 PM,60.8,51.8,72,30.18,-9999.0,SSE,4.6,-,N/A,,Clear,150,2012-10-18 16:45:00
7:15 PM,60.8,51.8,72,30.18,-9999.0,SSE,4.6,-,N/A,,Clear,150,2012-10-18 17:15:00
7:45 PM,60.8,50.0,68,30.18,-9999.0,SSE,4.6,-,N/A,,Clear,160,2012-10-18 17:45:00
8:00 PM,60,51,63,30.17,19,SSE,4.5,,,,Partly Cloudy,160,2012-10-18 18:00:00
8:15 PM,60.8,50.0,68,30.18,-9999.0,SSE,4.6,-,N/A,,Clear,150,2012-10-18 18:15:00
8:45 PM,59.0,50.0,72,30.15,-9999.0,SSE,3.5,-,N/A,,Clear,160,2012-10-18 18:45:00
9:15 PM,57.2,50.0,77,30.18,-9999.0,South,2.3,-,N/A,,Clear,170,2012-10-18 19:15:00
9:45 PM,57.2,50.0,77,30.18,-9999.0,SE,1.2,-,N/A,,Clear,130,2012-10-18 19:45:00
11:45 PM,53.6,48.2,82,30.18,-9999.0,ESE,4.6,-,N/A,,Clear,120,2012-10-18 21:45:00